FLOCK 4BE-13

Last updated on Mon Sep 16 2024 00:02:03 GMT+0000 (Coordinated Universal Time)

1 60512U 24149AW 24258.89002591 .00018115 00000+0 86442-3 0 9991 2 60512 97.4360 333.9994 0006840 45.1038 315.0751 15.19102705 4416

Satellite not in orbit

FLOCK 4BE-13